Flag for U.S.A. Weather past 2 weeks in Sioux Falls, South Dakota, U.S.A.

Now
64 °F

Fog.


Feels Like: 64 °F
Forecast: 63 / 74 °F
Wind: 7 mph from Southeast

Location: Foss Field

Current Time: Jul 1, 2015 at 7:56:12 AM

Latest Report: Jul 1, 2015 at 6:56 AM


Visibility: 5 mi

Pressure: 29.88 "Hg

Humidity: 90%

Dew point: 61 °F

Location of Sioux FallsLocation

Historic Weather in Sioux Falls — Graph

°F

Sioux Falls temperature yesterday

Maximum temperature yesterday: 75 °F (at 12:56 PM)
Minimum temperature yesterday: 63 °F (at 3:56 AM)
Average temperature yesterday: 69 °F

Past Weeks' High & Low Weather Summary

 TemperatureHumidityPressure
High85 °F (Jun 27, 3:56 PM)97% (Jun 18, 4:56 AM)30.19 "Hg (Jun 18, 4:56 AM)
Low52 °F (Jun 18, 4:56 AM)37% (Jun 21, 1:56 PM)27.72 "Hg (Jun 22, 5:00 AM)
Average70 °F70%29.95 "Hg
* Reported Jun 16 6:56 AM — Jul 1 6:56 AM, Sioux Falls, Weather by CustomWeather, © 2015

Note: Actual official high and low records may vary slightly from our data, if they occured in-between our weather recording intervals... More about our weather records

Advertising

Sioux Falls weather history for previous 24 hours

 ConditionsComfort  
Time TempWeatherWind HumidityBarometerVisibility
6:56 AM
Wed, Jul 1
64 °FFog.7 mph90%29.88 "Hg5 mi
5:56 AM63 °FRain. Fog.6 mph93%29.87 "Hg5 mi
4:56 AM64 °FThunderstorms. Mostly cloudy.3 mph94%29.89 "Hg7 mi
3:56 AM65 °FPassing clouds.7 mph91%29.86 "Hg8 mi
2:56 AM65 °FLight rain. Fog.13 mph91%29.85 "Hg6 mi
1:56 AM65 °FPassing clouds.7 mph91%29.90 "Hg7 mi
12:56 AM66 °FClear.6 mph87%29.89 "Hg7 mi
11:56 PM
Tue, Jun 30
68 °FPassing clouds.8 mph87%29.87 "Hg8 mi
10:56 PM67 °FPartly cloudy.5 mph90%29.87 "Hg8 mi
9:56 PM68 °FPartly sunny.3 mph90%29.88 "Hg9 mi
8:56 PM70 °FMostly cloudy.No wind90%29.87 "Hg7 mi
7:56 PM70 °FLight rain. Mostly cloudy.No wind87%29.88 "Hg10 mi
6:56 PM72 °FMostly cloudy.3 mph78%29.88 "Hg7 mi
5:56 PM72 °FOvercast.3 mph84%29.88 "Hg5 mi
4:56 PM73 °FLight rain. Overcast.3 mph76%29.91 "Hg7 mi
3:56 PM75 °FLight rain. Overcast.6 mph69%29.90 "Hg7 mi
2:56 PM75 °FMore clouds than sun.5 mph71%29.90 "Hg9 mi
1:56 PM74 °FMostly cloudy.7 mph71%29.90 "Hg9 mi
12:56 PM75 °FMostly cloudy.3 mph66%29.91 "Hg8 mi
11:56 AM74 °FMostly cloudy.5 mph71%29.92 "Hg8 mi
10:56 AM71 °FMostly cloudy.3 mph76%29.94 "Hg7 mi
9:56 AM70 °FMore clouds than sun.No wind79%29.93 "Hg9 mi
8:56 AM68 °FMore clouds than sun.3 mph84%29.92 "Hg8 mi
7:56 AM66 °FMostly cloudy.No wind90%29.94 "Hg8 mi
Weather by CustomWeather, © 2015

See weather overviewHow to use our weather pages